| time (UTC) | temp F | wind direction | speed knots | gust knots | rain 1hr in | rain 24hr in | rain mn in | humidity % | barometer mb |
| 20260503200158 | 81 | 23 | 4.3 | 6.1 | 0.00 | 0.00 | 0.00 | ||
| 20260503195658 | 80 | 68 | 2.6 | 3.5 | 0.00 | 0.00 | 0.00 | ||
| 20260503195158 | 81 | 23 | 4.3 | 6.1 | 0.00 | 0.00 | 0.00 | ||
| 20260503194658 | 82 | 113 | 0.9 | 2.6 | 0.00 | 0.00 | 0.00 | ||
| 20260503194159 | 82 | 45 | 2.6 | 3.5 | 0.00 | 0.00 | 0.00 | ||
| 20260503193659 | 82 | 113 | 2.6 | 3.5 | 0.00 | 0.00 | 0.00 | ||
| 20260503193158 | 0 | 0.9 | 2.6 | 0.00 | 0.00 | 0.00 | |||
| 20260503192657 | 81 | 90 | 1.7 | 3.5 | 0.00 | 0.00 | 0.00 | ||
| 20260503192158 | 79 | 225 | 0.9 | 3.5 | 0.00 | 0.00 | 0.00 | ||
| 20260503191658 | 80 | 203 | 0.9 | 2.6 | 0.00 | 0.00 | 0.00 | ||
| 20260503191159 | 79 | 68 | 1.7 | 2.6 | 0.00 | 0.00 | 0.00 | ||
| 20260503190659 | 77 | 3.5 | 7.0 | 0.00 | 0.00 | 0.00 | |||
| 20260503190158 | 78 | 0 | 3.5 | 5.2 | 0.00 | 0.00 | 0.00 | ||
| 20260503185657 | 76 | 225 | 5.2 | 7.8 | 0.00 | 0.00 | 0.00 | ||
| 20260503185157 | 77 | 225 | 4.3 | 5.2 | 0.00 | 0.00 | 0.00 | ||
| 20260503184657 | 0 | 3.5 | 4.3 | 0.00 | 0.00 | 0.00 | |||
| 20260503184159 | 74 | 113 | 5.2 | 7.0 | 0.00 | 0.00 | 0.00 | ||
| 20260503183658 | 0 | 5.2 | 7.8 | 0.00 | 0.00 | 0.00 | |||
| 20260503182159 | 0 | 225 | 2.6 | 2.6 | 0.00 | 0.00 | 0.00 | ||
| 20260503174159 | 75 | 0.0 | 0.0 | 0.00 | 0.00 | 0.00 | |||
| 20260503160158 | 67 | 3.5 | 3.5 | 0.00 | 0.00 | 0.00 | |||
| 20260503140157 | 52 | 158 | 0.0 | 0.0 | 0.00 | 0.00 | 0.00 | ||
| 20260503131159 | 51 | 158 | 0.0 | 0.0 | 0.00 | 0.00 | 0.00 | ||
| 20260503130659 | 51 | 113 | 0.0 | 0.0 | 0.00 | 0.00 | 0.00 | ||
| 20260503130158 | 52 | 203 | 0.0 | 0.0 | 0.00 | 0.00 | 0.00 | ||
| 20260503120159 | 0 | 0.0 | 0.0 | 0.00 | 0.00 | 0.00 | |||
| 20260503110657 | 0 | 0.0 | 0.0 | 0.00 | 0.00 | 0.00 | |||
| 20260503110157 | 53 | 90 | 0.0 | 0.0 | 0.00 | 0.00 | 0.00 | ||
| 20260503100159 | 54 | 180 | 0.0 | 0.0 | 0.00 | 0.00 | 0.00 | ||
| 20260503090201 | 56 | 180 | 0.0 | 0.0 | 0.00 | 0.00 | 0.00 | ||
| 20260503081158 | 57 | 113 | 0.0 | 0.0 | 0.00 | 0.00 | 0.00 | ||
| 20260503080657 | 57 | 113 | 0.0 | 0.0 | 0.00 | 0.00 | 0.00 | ||
| 20260503080158 | 58 | 158 | 0.0 | 0.0 | 0.00 | 0.00 | 0.00 | ||
| 20260503072657 | 58 | 45 | 0.0 | 1.7 | 0.00 | 0.00 | 0.00 | ||
| 20260503072158 | 58 | 90 | 0.0 | 0.0 | 0.00 | 0.00 | 0.00 | ||
| 20260503071657 | 58 | 135 | 0.0 | 0.0 | 0.00 | 0.00 | 0.00 | ||
| 20260503071158 | 58 | 158 | 0.0 | 0.0 | 0.00 | 0.00 | 0.00 | ||
| 20260503070659 | 59 | 113 | 0.0 | 0.0 | 0.00 | 0.00 | 0.00 | ||
| 20260503070158 | 59 | 135 | 0.0 | 0.0 | 0.00 | 0.00 | 0.00 | ||
| 20260503060157 | 59 | 225 | 0.0 | 0.0 | 0.00 | 0.00 | 0.00 | ||
| 20260503054657 | 60 | 203 | 0.0 | 0.0 | 0.00 | 0.00 | 0.00 | ||
| 20260503054158 | 60 | 180 | 0.0 | 0.0 | 0.00 | 0.00 | 0.00 | ||
| 20260503053659 | 61 | 135 | 0.0 | 0.0 | 0.00 | 0.00 | 0.00 | ||
| 20260503053158 | 61 | 113 | 0.0 | 0.0 | 0.00 | 0.00 | 0.00 | ||
| 20260503052657 | 61 | 135 | 0.0 | 0.0 | 0.00 | 0.00 | 0.00 | ||
| 20260503052157 | 61 | 113 | 0.0 | 0.0 | 0.00 | 0.00 | 0.00 | ||
| 20260503051658 | 61 | 90 | 0.0 | 0.0 | 0.00 | 0.00 | 0.00 | ||
| 20260503051159 | 61 | 113 | 0.0 | 0.0 | 0.00 | 0.00 | 0.00 | ||
| 20260503050659 | 0 | 0.0 | 0.0 | 0.00 | 0.00 | 0.00 | |||
| 20260503050157 | 62 | 135 | 0.0 | 0.0 | 0.00 | 0.00 | 0.00 | ||
| 20260503045658 | 62 | 158 | 0.0 | 0.0 | 0.00 | 0.00 | 0.00 | ||
| 20260503045159 | 62 | 90 | 0.0 | 0.0 | 0.00 | 0.00 | 0.00 | ||
| 20260503044159 | 63 | 158 | 0.0 | 0.0 | 0.00 | 0.00 | 0.00 | ||
| 20260503043659 | 64 | 135 | 0.0 | 0.0 | 0.00 | 0.00 | 0.00 | ||
| 20260503043158 | 64 | 158 | 0.0 | 0.0 | 0.00 | 0.00 | 0.00 | ||
| 20260503042658 | 64 | 90 | 0.0 | 0.0 | 0.00 | 0.00 | 0.00 | ||
| 20260503042159 | 65 | 90 | 0.0 | 0.0 | 0.00 | 0.00 | 0.00 | ||
| 20260503041659 | 65 | 113 | 0.0 | 0.0 | 0.00 | 0.00 | 0.00 | ||
| 20260503041158 | 65 | 90 | 0.9 | 3.5 | 0.00 | 0.00 | 0.00 | ||
| 20260503040657 | 66 | 113 | 0.9 | 1.7 | 0.00 | 0.00 | 0.00 | ||
| 20260503040157 | 66 | 90 | 1.7 | 3.5 | 0.00 | 0.00 | 0.00 | ||
| 20260503035657 | 66 | 45 | 0.9 | 1.7 | 0.00 | 0.00 | 0.00 | ||
| 20260503035157 | 67 | 45 | 1.7 | 2.6 | 0.00 | 0.00 | 0.00 | ||
| 20260503034657 | 68 | 68 | 0.0 | 0.0 | 0.00 | 0.00 | 0.00 | ||
| 20260503034157 | 68 | 180 | 0.0 | 0.0 | 0.00 | 0.00 | 0.00 | ||
| 20260503033658 | 69 | 180 | 0.0 | 0.0 | 0.00 | 0.00 | 0.00 | ||
| 20260503033159 | 69 | 90 | 0.0 | 0.0 | 0.00 | 0.00 | 0.00 | ||
| 20260503032659 | 70 | 113 | 2.6 | 4.3 | 0.00 | 0.00 | 0.00 | ||
| 20260503032157 | 70 | 315 | 3.5 | 5.2 | 0.00 | 0.00 | 0.00 | ||
| 20260503031657 | 0 | 2.6 | 3.5 | 0.00 | 0.00 | 0.00 | |||
| 20260503031157 | 71 | 135 | 3.5 | 5.2 | 0.00 | 0.00 | 0.00 | ||
| 20260503030658 | 71 | 23 | 3.5 | 6.1 | 0.00 | 0.00 | 0.00 | ||
| 20260503025658 | 72 | 270 | 5.2 | 11.3 | 0.00 | 0.00 | 0.00 | ||
| 20260503025159 | 72 | 225 | 4.3 | 7.0 | 0.00 | 0.00 | 0.00 | ||
| 20260503024659 | 0 | 4.3 | 4.3 | 0.00 | 0.00 | 0.00 | |||
| 20260503022657 | 75 | 113 | 3.5 | 3.5 | 0.00 | 0.00 | 0.00 | ||
| 20260503022158 | 77 | 3.5 | 3.5 | 0.00 | 0.00 | 0.00 | |||
| 20260503021659 | 78 | 113 | 3.5 | 3.5 | 0.00 | 0.00 | 0.00 | ||
| 20260503021159 | 78 | 0.0 | 0.0 | 0.00 | 0.00 | 0.00 | |||
| 20260503015659 | 78 | 1.7 | 1.7 | 0.00 | 0.00 | 0.00 | |||
| 20260503014658 | 0 | 90 | 4.3 | 4.3 | 0.00 | 0.00 | 0.00 | ||
| 20260503013157 | 79 | 2.6 | 2.6 | 0.00 | 0.00 | 0.00 | |||
| 20260503012658 | 80 | 203 | 4.3 | 7.8 | 0.00 | 0.00 | 0.00 | ||
| 20260503012159 | 0 | 203 | 2.6 | 2.6 | 0.00 | 0.00 | 0.00 | ||
| 20260503011657 | 79 | 4.3 | 4.3 | 0.00 | 0.00 | 0.00 | |||
| 20260503011157 | 80 | 338 | 5.2 | 7.8 | 0.00 | 0.00 | 0.00 | ||
| 20260503010658 | 80 | 7.0 | 7.0 | 0.00 | 0.00 | 0.00 | |||
| 20260503010159 | 80 | 293 | 3.5 | 5.2 | 0.00 | 0.00 | 0.00 | ||
| 20260503005658 | 80 | 7.0 | 7.0 | 0.00 | 0.00 | 0.00 | |||
| 20260503002158 | 0 | 23 | 7.8 | 7.8 | 0.00 | 0.00 | 0.00 | ||
| 20260503000159 | 81 | 180 | 10.4 | 12.2 | 0.00 | 0.00 | 0.00 | ||
| 20260502232159 | 82 | 5.2 | 5.2 | 0.00 | 0.00 | 0.00 | |||
| 20260502231158 | 83 | 7.0 | 7.0 | 0.00 | 0.00 | 0.00 | |||
| 20260502225658 | 0 | 5.2 | 7.8 | 0.00 | 0.00 | 0.00 | |||
| 20260502225159 | 82 | 270 | 3.5 | 4.3 | 0.00 | 0.00 | 0.00 | ||
| 20260502223658 | 0 | 248 | 3.5 | 3.5 | 0.00 | 0.00 | 0.00 | ||
| 20260502222158 | 81 | 203 | 3.5 | 7.0 | 0.00 | 0.00 | 0.00 | ||
| 20260502221658 | 81 | 90 | 5.2 | 7.0 | 0.00 | 0.00 | 0.00 | ||
| 20260502221158 | 82 | 225 | 1.7 | 4.3 | 0.00 | 0.00 | 0.00 | ||
| 20260502220657 | 81 | 338 | 5.2 | 7.8 | 0.00 | 0.00 | 0.00 | ||
| 20260502220158 | 80 | 135 | 3.5 | 4.3 | 0.00 | 0.00 | 0.00 | ||
| 20260502215659 | 80 | 23 | 3.5 | 4.3 | 0.00 | 0.00 | 0.00 | ||
| 20260502215159 | 81 | 180 | 5.2 | 7.8 | 0.00 | 0.00 | 0.00 | ||
| 20260502214659 | 80 | 113 | 3.5 | 4.3 | 0.00 | 0.00 | 0.00 | ||
| 20260502214159 | 0 | 1.7 | 3.5 | 0.00 | 0.00 | 0.00 | |||
| 20260502213658 | 0 | 68 | 3.5 | 3.5 | 0.00 | 0.00 | 0.00 | ||
| 20260502205659 | 80 | 270 | 2.6 | 4.3 | 0.00 | 0.00 | 0.00 | ||
| 20260502205159 | 0 | 3.5 | 3.5 | 0.00 | 0.00 | 0.00 | |||
| 20260502204657 | 79 | 45 | 2.6 | 4.3 | 0.00 | 0.00 | 0.00 | ||
| 20260502200659 | 0 | 270 | 2.6 | 2.6 | 0.00 | 0.00 | 0.00 |